When you browse on this site, cookies collect data to enhance your experience and personalize the content and advertising you see.
Visit our Privacy Policy to learn more. By continuing to use the site, you agree to this use of cookies and data.
  • In Lithuania
  • List of Countries
  • For 7 days
  • Water Temperature
  • Weather Map
  • Weather Widgets
  • user-avatar
    Login

    Hourly Weather Chakhansur

    Today, 28 May, Thursday

    Time Temperature Precipitation Wind Pressure Humidity
    00:00 +34°C° 0 mm 12 mps 713 mmHg 19%
    01:00 +33°C° 0 mm 12 mps 713 mmHg 20%
    02:00 +32°C° 0 mm 12 mps 713 mmHg 21%
    03:00 +32°C° 0 mm 12 mps 713 mmHg 23%
    04:00 +31°C° 0 mm 11 mps 712 mmHg 24%
    05:00 +32°C° 0 mm 12 mps 713 mmHg 22%
    06:00 +33°C° 0 mm 13 mps 713 mmHg 21%
    07:00 +34°C° 0 mm 13 mps 714 mmHg 19%
    08:00 +37°C° 0 mm 13 mps 714 mmHg 16%
    09:00 +39°C° 0 mm 12 mps 714 mmHg 14%
    10:00 +42°C° 0 mm 12 mps 714 mmHg 11%
    11:00 +43°C° 0 mm 12 mps 713 mmHg 10%
    12:00 +44°C° 0 mm 12 mps 712 mmHg 9%
    13:00 +46°C° 0 mm 12 mps 712 mmHg 8%
    14:00 +46°C° 0 mm 12 mps 711 mmHg 8%
    15:00 +47°C° 0 mm 11 mps 711 mmHg 8%
    16:00 +47°C° 0 mm 10 mps 710 mmHg 7%
    17:00 +44°C° 0 mm 11 mps 710 mmHg 8%
    18:00 +43°C° 0 mm 13 mps 710 mmHg 9%
    19:00 +41°C° 0 mm 14 mps 711 mmHg 10%
    20:00 +39°C° 0 mm 13 mps 711 mmHg 11%
    21:00 +38°C° 0 mm 13 mps 711 mmHg 12%
    22:00 +38°C° 0 mm 12 mps 711 mmHg 13%
    23:00 +37°C° 0 mm 11 mps 711 mmHg 14%

    Tomorrow, 29 May, Friday

    Time Temperature Precipitation Wind Pressure Humidity
    00:00 +36°C° 0 mm 10 mps 711 mmHg 14%
    01:00 +34°C° 0 mm 9 mps 711 mmHg 14%
    02:00 +33°C° 0 mm 9 mps 711 mmHg 15%
    03:00 +32°C° 0 mm 8 mps 710 mmHg 16%
    04:00 +32°C° 0 mm 8 mps 710 mmHg 17%
    05:00 +33°C° 0 mm 9 mps 711 mmHg 15%
    06:00 +34°C° 0 mm 9 mps 711 mmHg 14%
    07:00 +36°C° 0 mm 10 mps 712 mmHg 13%
    08:00 +38°C° 0 mm 9 mps 712 mmHg 11%
    09:00 +40°C° 0 mm 9 mps 712 mmHg 10%
    10:00 +44°C° 0 mm 8 mps 712 mmHg 8%
    11:00 +44°C° 0 mm 8 mps 712 mmHg 8%
    12:00 +45°C° 0 mm 8 mps 711 mmHg 7%
    13:00 +46°C° 0 mm 8 mps 711 mmHg 6%
    14:00 +46°C° 0 mm 8 mps 710 mmHg 6%
    15:00 +47°C° 0 mm 7 mps 710 mmHg 6%
    16:00 +47°C° 0 mm 7 mps 709 mmHg 6%
    17:00 +45°C° 0 mm 8 mps 709 mmHg 7%
    18:00 +44°C° 0 mm 9 mps 709 mmHg 8%
    19:00 +42°C° 0 mm 11 mps 709 mmHg 9%
    20:00 +41°C° 0 mm 11 mps 710 mmHg 9%
    21:00 +39°C° 0 mm 12 mps 710 mmHg 9%
    22:00 +38°C° 0 mm 13 mps 711 mmHg 9%
    23:00 +37°C° 0 mm 12 mps 711 mmHg 10%

    Day after tomorrow, 30 May, Saturday

    Time Temperature Precipitation Wind Pressure Humidity
    00:00 +36°C° 0 mm 11 mps 711 mmHg 10%
    01:00 +34°C° 0 mm 10 mps 711 mmHg 11%
    02:00 +33°C° 0 mm 9 mps 711 mmHg 12%
    03:00 +32°C° 0 mm 8 mps 711 mmHg 13%
    04:00 +30°C° 0 mm 7 mps 711 mmHg 14%
    05:00 +32°C° 0 mm 7 mps 711 mmHg 14%
    06:00 +33°C° 0 mm 7 mps 712 mmHg 13%
    07:00 +34°C° 0 mm 8 mps 713 mmHg 13%
    08:00 +38°C° 0 mm 8 mps 713 mmHg 11%
    09:00 +40°C° 0 mm 7 mps 713 mmHg 9%
    10:00 +43°C° 0 mm 7 mps 713 mmHg 7%
    11:00 +44°C° 0 mm 6 mps 713 mmHg 6%
    12:00 +45°C° 0 mm 6 mps 713 mmHg 5%
    13:00 +46°C° 0 mm 6 mps 713 mmHg 4%
    14:00 +46°C° 0 mm 7 mps 712 mmHg 4%
    15:00 +46°C° 0 mm 8 mps 712 mmHg 4%
    16:00 +48°C° 0 mm 9 mps 711 mmHg 4%
    17:00 +45°C° 0 mm 9 mps 711 mmHg 4%
    18:00 +43°C° 0 mm 9 mps 711 mmHg 5%
    19:00 +40°C° 0 mm 9 mps 711 mmHg 6%
    20:00 +39°C° 0 mm 8 mps 712 mmHg 6%
    21:00 +38°C° 0 mm 8 mps 712 mmHg 7%
    22:00 +37°C° 0 mm 8 mps 712 mmHg 7%
    23:00 +35°C° 0 mm 8 mps 712 mmHg 8%

    31 May, Sunday

    Time Temperature Precipitation Wind Pressure Humidity
    00:00 +34°C° 0 mm 7 mps 712 mmHg 9%
    01:00 +32°C° 0 mm 7 mps 712 mmHg 9%
    02:00 +32°C° 0 mm 7 mps 712 mmHg 10%
    03:00 +30°C° 0 mm 7 mps 712 mmHg 10%
    04:00 +29°C° 0 mm 7 mps 712 mmHg 10%
    05:00 +31°C° 0 mm 8 mps 712 mmHg 9%
    06:00 +33°C° 0 mm 8 mps 713 mmHg 8%
    07:00 +34°C° 0 mm 9 mps 713 mmHg 7%
    08:00 +37°C° 0 mm 8 mps 713 mmHg 7%
    09:00 +40°C° 0 mm 7 mps 714 mmHg 7%
    10:00 +43°C° 0 mm 7 mps 714 mmHg 7%
    11:00 +45°C° 0 mm 7 mps 714 mmHg 6%
    12:00 +46°C° 0 mm 7 mps 714 mmHg 4%
    13:00 +47°C° 0 mm 7 mps 713 mmHg 3%
    14:00 +49°C° 0 mm 7 mps 713 mmHg 3%
    15:00 +49°C° 0 mm 8 mps 712 mmHg 2%
    16:00 +49°C° 0 mm 8 mps 712 mmHg 1%
    17:00 +46°C° 0 mm 8 mps 712 mmHg 2%
    18:00 +44°C° 0 mm 8 mps 712 mmHg 3%
    19:00 +41°C° 0 mm 7 mps 712 mmHg 3%
    20:00 +40°C° 0 mm 7 mps 712 mmHg 4%
    21:00 +38°C° 0 mm 7 mps 712 mmHg 4%
    22:00 +36°C° 0 mm 7 mps 712 mmHg 4%
    23:00 +35°C° 0 mm 7 mps 712 mmHg 5%

    1 June, Monday

    Time Temperature Precipitation Wind Pressure Humidity
    00:00 +34°C° 0 mm 7 mps 712 mmHg 5%
    01:00 +34°C° 0 mm 7 mps 712 mmHg 6%
    02:00 +33°C° 0 mm 7 mps 712 mmHg 6%
    03:00 +32°C° 0 mm 8 mps 712 mmHg 7%
    04:00 +32°C° 0 mm 8 mps 712 mmHg 7%
    05:00 +33°C° 0 mm 8 mps 712 mmHg 7%
    06:00 +34°C° 0 mm 8 mps 713 mmHg 6%
    07:00 +35°C° 0 mm 8 mps 713 mmHg 6%
    08:00 +38°C° 0 mm 8 mps 714 mmHg 5%
    09:00 +41°C° 0 mm 7 mps 714 mmHg 4%
    10:00 +45°C° 0 mm 7 mps 714 mmHg 3%
    11:00 +46°C° 0 mm 7 mps 714 mmHg 3%
    12:00 +49°C° 0 mm 8 mps 714 mmHg 3%
    13:00 +50°C° 0 mm 9 mps 714 mmHg 2%
    14:00 +50°C° 0 mm 9 mps 713 mmHg 3%
    15:00 +50°C° 0 mm 9 mps 713 mmHg 3%
    16:00 +50°C° 0 mm 9 mps 712 mmHg 3%
    17:00 +49°C° 0 mm 8 mps 712 mmHg 4%
    18:00 +46°C° 0 mm 7 mps 712 mmHg 4%
    19:00 +44°C° 0 mm 7 mps 712 mmHg 5%
    20:00 +41°C° 0 mm 6 mps 712 mmHg 5%
    21:00 +40°C° 0 mm 5 mps 712 mmHg 6%
    22:00 +37°C° 0 mm 4 mps 712 mmHg 7%
    23:00 +36°C° 0 mm 5 mps 712 mmHg 7%

    2 June, Tuesday

    Time Temperature Precipitation Wind Pressure Humidity
    00:00 +35°C° 0 mm 5 mps 712 mmHg 8%
    01:00 +34°C° 0 mm 5 mps 712 mmHg 9%
    02:00 +33°C° 0 mm 6 mps 712 mmHg 10%
    03:00 +33°C° 0 mm 6 mps 712 mmHg 11%
    04:00 +32°C° 0 mm 7 mps 712 mmHg 12%
    05:00 +33°C° 0 mm 7 mps 713 mmHg 11%
    06:00 +34°C° 0 mm 7 mps 713 mmHg 11%
    07:00 +35°C° 0 mm 8 mps 714 mmHg 11%
    08:00 +39°C° 0 mm 8 mps 714 mmHg 9%
    09:00 +43°C° 0 mm 8 mps 714 mmHg 8%
    10:00 +45°C° 0 mm 8 mps 714 mmHg 6%
    11:00 +48°C° 0 mm 8 mps 714 mmHg 6%
    12:00 +49°C° 0 mm 7 mps 714 mmHg 5%
    13:00 +50°C° 0 mm 7 mps 713 mmHg 4%
    14:00 +50°C° 0 mm 7 mps 713 mmHg 4%
    15:00 +50°C° 0 mm 8 mps 712 mmHg 4%
    16:00 +50°C° 0 mm 8 mps 712 mmHg 4%
    17:00 +48°C° 0 mm 8 mps 712 mmHg 5%
    18:00 +45°C° 0 mm 7 mps 712 mmHg 5%
    19:00 +44°C° 0 mm 7 mps 712 mmHg 5%
    20:00 +41°C° 0 mm 7 mps 712 mmHg 6%
    21:00 +40°C° 0 mm 7 mps 712 mmHg 7%
    22:00 +39°C° 0 mm 8 mps 712 mmHg 8%
    23:00 +38°C° 0 mm 7 mps 712 mmHg 9%
    Show more